GLOBALSTAR M086

Last updated on Sun Jun 21 2026 00:03:18 GMT+0000 (Coordinated Universal Time)

1 38045U 11080F 26171.38290250 -.00000081 00000+0 12517-3 0 9994 2 38045 51.9915 318.6555 0001694 72.9825 309.0109 12.62286851670060
UTC large
Height (km)
Speed (km/s)
/
Latitude / Longitude
Inclination (degrees)
Orbital Period (minutes)
Azimuth
Elevation
Range (km)
Doppler Factor

Next 0 passes for location: London (51.5072 / 0.1276)

No passes found over London.
GLOBALSTAR M086